Theta_e
316 318 321 323 325 326 328 329 329 329 329 329 329 329 328 328 328 329 329 328 328 329 328 328 328 327 327 327 326 326 326 326 325 325 325 325 325 324 324 324 323 323 323 322 322 322 322 322 322 321 321 322 322 322 321 321 321 321 321 322 321 321 321 320 319 319 316 315 315 315 313 312 313 313 313 313 313 313 310 305 301 299 299 299 298
315 317 320 322 324 325 327 328 328 329 329 329 328 328 328 328 327 328 328 328 328 328 328 328 328 327 327 327 326 326 326 325 326 325 325 325 325 324 324 323 323 323 322 322 322 322 322 321 321 321 321 321 321 321 321 321 321 321 321 321 321 321 321 320 319 317 316 314 314 314 313 313 312 312 312 313 313 313 309 303 299 298 298 298 297
314 316 318 320 322 324 325 325 326 327 328 328 328 327 327 327 327 327 327 327 327 328 328 328 328 327 327 327 326 326 325 325 325 325 325 325 325 324 324 323 323 323 322 322 322 322 321 321 321 321 321 320 321 321 321 321 321 321 321 321 320 320 320 320 319 316 315 314 313 313 313 311 310 310 309 309 310 309 305 302 300 299 298 297 297
311 315 318 319 320 322 323 323 324 325 326 327 327 327 327 327 326 327 327 327 327 327 327 327 328 327 327 327 326 325 325 325 325 325 325 325 325 324 324 323 323 323 322 322 322 321 321 321 320 321 320 320 320 320 321 321 320 320 320 320 320 320 320 320 319 317 315 313 311 311 311 310 308 307 306 305 305 303 300 299 299 299 298 298 298
310 312 315 318 319 320 321 322 323 324 325 326 326 326 326 326 326 326 326 326 327 327 327 327 327 327 327 326 326 325 325 325 325 325 325 325 325 324 324 324 324 323 323 322 322 321 321 321 321 320 320 320 320 320 321 320 320 320 320 320 320 319 320 319 318 316 315 313 311 309 308 306 305 304 303 301 300 299 297 297 298 298 297 298 297
309 310 311 314 316 318 319 320 322 323 324 325 326 326 326 326 326 326 326 326 326 327 327 327 327 327 326 326 326 325 325 325 325 325 325 325 325 324 324 324 324 323 323 323 322 322 321 321 321 321 321 320 320 320 320 320 320 320 320 320 319 319 319 317 316 315 314 313 312 308 305 303 302 300 299 299 299 297 296 296 296 296 296 296 295
309 309 309 310 311 314 317 319 320 321 322 323 324 325 325 325 325 325 325 326 326 326 326 327 326 326 326 326 326 325 325 325 325 325 325 325 325 324 324 324 324 323 323 323 323 322 322 322 321 321 321 321 321 320 320 320 320 320 320 320 319 318 316 315 314 312 311 310 309 307 304 301 299 297 298 299 297 295 295 294 294 295 295 295 294
309 309 308 308 309 311 314 316 318 320 321 321 322 323 324 324 324 325 325 325 325 325 325 326 325 325 325 325 325 325 325 325 325 325 325 325 324 324 324 324 323 323 323 323 323 323 322 322 322 322 322 321 322 321 321 321 320 320 320 319 317 316 314 313 312 310 309 307 306 305 302 298 296 295 296 295 293 293 295 294 292 293 294 294 294
309 308 308 308 308 309 310 312 314 316 318 319 320 321 322 322 323 324 324 324 324 324 324 324 324 325 325 324 325 325 325 325 325 325 325 324 324 324 324 324 323 323 323 323 323 323 323 323 323 322 322 322 322 322 322 322 321 320 319 318 316 314 312 311 310 307 305 304 303 303 300 297 295 294 293 293 293 296 298 294 292 293 293 293 292
308 308 308 308 308 308 309 309 310 312 313 314 315 317 318 320 321 322 323 323 323 323 323 323 323 324 324 324 324 324 324 324 324 324 325 324 324 324 324 324 323 323 323 322 322 323 323 322 322 323 323 323 323 323 323 323 322 321 319 319 317 314 312 310 308 307 304 302 302 301 298 296 295 295 295 296 297 298 297 294 293 293 293 291 292
308 307 307 308 307 307 307 308 308 309 309 310 311 312 313 315 317 318 319 319 320 321 321 321 321 322 323 323 323 323 323 324 324 324 324 324 324 324 324 323 323 323 323 323 322 322 322 322 322 322 322 322 322 322 321 321 321 320 318 318 318 317 314 311 308 306 304 302 302 301 299 298 298 297 297 297 297 296 295 294 294 293 292 292 292
307 307 307 307 307 306 306 306 306 307 307 308 308 309 309 310 311 313 314 315 316 317 318 318 319 320 321 321 322 322 322 323 323 323 324 324 324 324 324 323 323 323 323 322 322 322 321 321 321 322 322 321 321 321 321 320 320 319 317 316 317 316 315 314 311 308 306 304 302 301 300 300 300 299 297 297 296 295 294 293 293 293 292 292 292
307 306 306 306 306 306 306 305 305 306 306 306 306 307 307 308 308 309 310 311 312 313 314 315 316 317 318 319 320 320 321 322 322 323 323 323 323 323 323 323 322 322 322 322 322 321 321 321 321 321 321 320 319 319 319 319 319 318 316 314 314 314 313 313 312 311 310 307 304 303 302 302 301 299 299 298 297 295 293 293 293 292 292 292 292
307 306 306 306 306 306 306 306 306 305 305 305 305 305 305 306 306 307 307 308 308 309 311 312 313 314 316 317 318 318 319 320 321 321 322 322 323 323 323 322 322 322 322 322 321 320 320 320 320 320 320 319 318 318 318 318 317 316 314 312 312 311 310 309 308 308 308 307 306 305 304 303 301 300 299 298 298 297 296 295 294 293 292 292 291
307 306 306 306 306 307 307 307 307 306 305 305 304 304 304 305 305 305 306 306 307 307 308 309 310 312 313 314 316 316 317 318 319 320 320 321 322 322 322 321 321 320 320 320 320 320 320 320 319 319 320 320 319 319 318 318 316 315 314 312 310 309 308 307 307 307 306 305 305 304 303 301 300 298 297 297 297 297 297 296 295 293 292 291 290
306 306 306 306 307 307 307 307 307 306 305 305 304 303 303 304 304 304 303 304 305 306 306 307 308 309 310 312 313 314 315 316 317 318 319 319 320 320 320 320 319 319 319 319 319 319 319 319 319 319 319 320 321 320 318 317 315 314 312 310 308 307 307 307 307 306 304 303 303 302 300 299 298 297 297 297 296 295 294 293 292 291 290 289 289
306 306 306 306 306 306 306 306 306 306 305 305 304 304 304 304 303 303 302 302 302 303 304 305 306 307 308 310 311 312 313 314 315 316 317 318 318 318 318 317 317 317 317 317 317 317 318 319 320 319 318 319 320 320 317 315 314 312 310 308 305 304 305 306 306 305 303 302 301 300 299 298 297 298 298 297 295 294 292 291 290 289 289 288 289
305 305 305 305 305 305 305 305 305 305 304 304 304 305 304 304 303 302 301 301 301 302 302 303 304 305 307 308 309 310 311 312 314 315 316 317 317 317 317 317 316 314 314 315 315 316 317 318 318 319 318 317 318 318 316 313 312 311 309 306 304 303 304 306 305 303 300 299 299 298 298 297 297 297 296 294 292 291 289 289 288 288 288 288 289
305 305 305 304 304 304 304 304 304 304 304 304 304 304 304 303 303 302 301 300 300 301 302 302 303 304 305 306 307 308 310 311 312 313 315 316 316 317 316 315 313 313 313 313 313 314 315 315 316 316 316 315 316 316 313 311 311 311 310 307 304 303 305 306 306 303 300 298 297 297 296 295 294 293 292 290 288 287 287 288 288 288 288 288 289
304 304 303 303 303 303 303 303 303 303 303 304 303 303 303 302 301 301 300 300 300 300 301 302 302 303 304 305 306 308 309 309 310 311 313 314 314 315 314 313 312 312 312 312 312 312 312 313 314 315 313 313 314 314 312 309 310 311 310 308 306 306 307 306 304 302 299 297 296 295 293 292 290 290 289 288 287 286 286 287 287 287 288 288 288
302 302 302 302 302 303 303 302 302 302 302 303 303 302 302 301 301 300 300 300 300 300 301 302 302 303 303 304 306 307 308 309 309 311 313 313 313 314 314 314 313 313 312 311 311 311 311 312 314 314 313 312 312 313 312 310 310 310 309 308 308 309 308 304 301 299 297 295 293 291 290 289 288 288 287 287 287 286 286 286 286 286 287 287 287
300 300 300 300 300 301 301 301 301 301 301 302 301 301 301 301 300 300 299 299 299 299 300 301 302 302 303 304 306 307 308 309 310 311 313 313 313 314 314 314 314 313 311 309 309 310 311 313 314 314 313 312 311 312 312 310 309 308 307 306 306 306 305 303 299 295 293 292 290 289 288 287 287 287 287 286 286 286 286 285 285 285 285 285 286
297 297 297 297 297 298 299 299 300 300 300 300 300 300 300 300 299 299 299 298 299 299 299 300 300 301 302 303 304 306 307 308 310 311 312 313 314 314 314 314 314 314 312 310 308 308 309 310 311 313 312 311 310 310 309 308 306 305 304 303 302 302 302 300 296 293 291 290 289 288 287 287 286 286 286 286 286 285 285 285 285 285 285 284 284
295 295 295 295 295 296 297 298 298 299 299 299 299 299 299 298 298 298 298 298 298 298 299 299 299 300 301 301 303 303 304 305 307 308 310 311 312 313 313 313 313 312 311 310 309 309 309 309 310 311 311 310 309 308 307 305 302 301 301 301 299 299 298 296 293 291 290 289 288 288 287 287 287 286 286 286 285 285 284 285 284 284 284 284 284
295 295 295 295 295 295 296 296 297 297 298 298 298 298 298 297 297 297 297 297 298 298 299 299 299 299 300 300 301 301 302 302 303 304 306 308 310 311 311 310 310 310 310 309 309 309 310 310 310 311 310 308 306 304 302 300 298 297 297 298 296 296 295 293 291 290 289 288 288 288 287 287 287 286 286 285 285 284 284 284 283 283 283 283 283
293 294 295 296 295 295 294 295 296 297 297 297 297 297 297 297 297 297 297 297 297 297 298 299 299 299 299 299 299 300 300 300 300 300 302 304 307 308 308 308 308 308 308 308 307 307 307 307 308 307 305 303 301 300 298 296 295 294 295 295 294 294 293 292 290 289 288 288 287 287 286 286 286 285 284 284 283 283 283 283 282 282 282 282 281
291 292 293 294 294 294 294 295 295 296 296 297 297 297 297 297 297 297 297 297 297 297 298 298 298 298 298 298 298 298 299 299 298 298 299 301 304 305 305 305 305 305 305 304 303 303 303 302 302 301 299 297 297 297 296 293 292 292 292 292 291 291 290 290 289 288 287 287 286 285 285 284 284 283 283 283 282 282 282 282 282 281 281 281 281
290 290 291 291 292 293 294 295 295 296 296 296 296 296 296 296 296 296 297 297 297 297 297 297 298 298 298 298 298 298 298 298 298 297 297 299 301 301 301 301 301 301 301 300 299 299 299 298 297 295 294 293 293 292 291 290 290 290 290 289 288 288 287 287 287 287 286 286 285 284 283 283 283 282 282 282 282 281 281 282 281 281 280 281 281
289 290 290 291 292 293 294 295 295 295 296 296 296 296 296 296 297 297 297 297 297 297 297 297 297 298 298 298 298 297 297 298 297 297 297 298 299 299 299 300 299 299 298 298 297 296 295 293 292 291 291 291 290 290 289 288 288 288 287 287 286 286 286 286 286 286 285 285 284 283 282 282 282 282 282 281 281 281 281 281 280 280 280 280 280
289 289 290 291 292 293 294 294 295 295 295 295 296 296 296 296 296 296 296 296 296 297 297 297 297 297 298 298 298 298 298 298 297 297 297 298 299 299 299 299 299 298 296 296 296 294 292 290 290 290 290 290 289 289 288 288 287 286 286 285 285 285 285 285 285 285 284 284 283 283 282 282 282 281 281 280 280 280 280 280 279 279 279 279 279
288 289 290 290 291 291 292 293 294 294 295 295 295 295 295 295 295 295 296 296 296 296 296 296 297 297 297 297 297 297 297 297 297 297 297 297 298 299 299 298 298 297 296 295 295 293 291 291 290 290 290 290 289 289 288 288 287 286 285 285 285 285 285 285 284 284 284 283 283 282 282 281 281 281 280 280 279 279 278 278 278 278 278 279 279
287 288 288 289 289 290 291 292 293 293 294 294 294 295 295 295 295 295 295 295 295 295 296 296 296 296 296 297 297 297 297 297 297 297 297 297 297 298 299 298 297 297 297 296 294 293 292 291 291 290 290 290 289 289 288 287 287 286 285 285 285 285 285 285 284 283 283 283 282 282 282 281 280 280 280 279 278 278 278 278 278 278 278 278 278
286 286 287 288 288 289 290 291 292 293 293 294 294 294 294 294 294 295 295 294 294 294 295 295 295 295 295 296 296 296 296 297 297 297 297 297 297 297 297 297 296 296 295 294 293 293 292 291 291 290 289 289 289 288 287 287 286 286 286 285 285 285 285 284 284 283 283 282 282 281 281 281 280 280 279 279 278 278 278 278 278 278 278 278 277
284 285 286 286 287 288 289 290 291 292 293 293 293 294 294 294 294 294 294 294 294 293 293 294 295 295 295 295 295 296 296 296 296 297 297 297 297 297 296 294 294 294 293 293 293 292 291 291 290 289 289 289 288 287 287 286 286 285 285 285 284 284 284 283 283 282 282 281 281 281 280 280 280 279 279 278 278 278 278 278 278 278 277 277 277
283 283 284 285 286 287 288 289 290 291 292 293 293 293 293 293 293 293 293 294 294 293 293 293 294 294 295 295 295 295 296 296 296 296 296 296 296 295 293 292 291 291 291 292 292 292 291 290 290 289 288 288 287 286 286 286 285 285 285 284 283 283 283 282 282 281 281 281 280 280 280 279 279 279 278 278 278 278 278 278 278 278 277 277 277
281 282 283 285 286 287 288 289 290 291 291 292 292 293 293 293 293 293 293 293 293 293 293 293 293 293 293 294 294 294 295 295 295 295 295 295 295 293 292 290 290 289 290 290 291 291 290 290 289 288 288 287 287 286 285 285 284 284 284 283 282 281 281 281 280 280 280 280 280 279 279 279 279 279 278 278 278 278 278 278 277 277 277 277 276
280 281 282 283 285 286 287 288 288 289 290 291 291 292 292 293 293 293 293 293 293 292 293 293 292 291 291 292 293 293 294 294 294 295 295 294 293 292 291 291 290 289 289 290 290 289 289 288 288 287 287 286 286 285 285 284 284 283 282 281 281 281 280 280 280 280 280 279 279 279 279 279 279 278 278 278 277 277 277 277 277 276 276 276 276
279 280 281 282 283 284 285 286 287 288 289 290 291 291 292 292 292 292 292 292 292 292 292 292 291 290 290 291 291 292 293 293 292 292 292 292 291 291 291 291 290 289 289 289 289 288 288 287 287 286 286 285 284 284 284 283 282 282 281 281 280 280 280 280 280 279 279 279 279 279 279 278 278 278 277 277 277 277 276 276 276 276 275 275 274
278 279 280 281 282 283 284 285 286 287 288 289 290 291 291 291 292 292 292 291 291 291 292 291 290 289 290 291 290 290 291 291 290 290 290 290 290 290 290 290 290 289 289 288 288 287 287 286 286 285 284 284 284 283 283 282 282 281 281 281 280 280 280 279 279 279 279 279 278 278 278 277 277 277 277 276 276 276 276 275 275 275 274 274 274
277 278 279 280 281 282 283 284 285 285 286 288 289 290 290 291 291 291 291 291 291 291 291 290 289 289 290 290 290 290 290 290 290 290 290 289 289 289 290 290 290 289 288 287 287 286 286 285 284 284 283 283 283 282 282 282 281 281 281 280 280 279 279 279 279 279 278 278 278 277 277 276 276 276 276 276 275 275 275 274 274 274 273 273 273
276 277 278 279 280 281 282 283 283 284 285 286 287 288 289 290 290 291 291 290 291 290 290 289 289 289 289 289 289 290 290 290 290 290 289 289 289 289 289 289 289 288 287 286 286 285 285 284 283 283 283 282 282 282 281 281 281 280 280 280 279 279 279 278 278 278 277 277 276 276 276 275 275 275 275 275 274 274 274 273 273 273 272 273 272
275 276 277 278 279 280 281 282 282 283 284 285 286 287 288 288 289 290 290 290 290 289 289 288 288 287 287 288 288 288 289 289 289 289 289 288 288 288 287 287 287 286 286 285 285 284 283 283 282 282 282 281 281 281 281 280 280 280 279 279 279 278 278 277 277 277 276 275 275 275 274 274 274 274 274 273 273 273 273 272 272 272 272 271 271
274 275 276 277 278 279 279 280 281 282 283 284 285 285 286 287 287 288 288 288 288 287 287 287 286 285 285 286 286 286 287 287 287 287 286 286 286 285 285 284 284 284 284 284 283 283 282 282 281 281 280 280 280 280 280 280 280 279 279 278 277 277 276 276 276 276 275 275 274 274 274 273 273 273 273 272 272 272 272 271 271 271 271 270 270
273 273 274 276 277 278 279 279 280 280 281 282 283 283 284 285 285 286 286 287 286 286 286 285 284 282 283 284 284 284 284 284 284 284 283 282 282 282 282 282 282 282 282 282 281 281 281 280 279 279 279 279 279 279 279 279 279 279 279 278 277 277 277 277 276 276 276 275 274 274 273 273 272 272 271 271 271 271 270 270 270 270 270 269 269
272 273 274 275 276 277 278 279 279 279 280 280 281 281 282 283 283 284 284 285 284 284 284 283 282 280 280 281 281 281 281 280 280 280 280 280 280 279 279 279 280 280 280 279 279 279 279 279 278 278 278 278 278 278 278 278 279 279 279 278 278 277 277 277 276 276 276 275 275 274 273 272 271 271 270 270 270 269 269 269 269 269 269 269 268
271 273 274 275 276 277 277 277 278 278 278 279 279 280 281 281 281 282 282 282 282 281 281 280 279 279 278 278 279 278 278 277 277 277 277 277 277 277 277 277 278 278 278 278 277 277 277 278 278 278 278 277 277 277 277 277 277 277 277 277 277 277 276 276 276 275 275 275 274 274 273 272 271 270 269 269 268 268 268 268 268 268 268 268 268
272 273 274 275 275 276 276 276 276 277 277 277 278 278 279 279 279 279 279 279 279 278 278 277 277 276 276 276 276 276 275 275 275 275 275 275 275 275 276 276 277 277 277 276 276 276 277 277 277 277 277 277 276 276 276 276 276 275 275 275 275 276 275 275 274 274 274 274 273 273 272 271 270 269 268 268 267 267 267 267 267 267 267 267 267
272 273 274 274 275 275 275 275 276 276 276 276 276 276 276 276 276 276 276 276 276 275 275 275 274 274 274 274 274 273 273 273 273 273 273 273 273 273 274 275 275 276 276 275 276 276 277 277 277 276 276 275 275 275 275 275 275 275 275 275 274 274 274 274 273 273 273 272 272 271 271 271 270 269 268 267 267 267 267 266 266 266 266 266 266
272 273 273 273 274 274 274 274 274 274 275 275 274 274 274 274 274 274 273 273 273 273 273 272 272 272 272 272 272 272 272 271 271 271 271 271 271 272 273 274 274 275 275 275 275 275 275 275 275 275 274 274 274 274 274 274 274 274 274 274 273 273 273 273 272 272 271 271 271 270 270 270 269 268 268 267 267 266 266 265 265 265 265 265 265
271 271 272 272 272 272 272 272 273 273 273 273 272 272 272 272 272 272 272 271 271 271 271 271 271 271 270 270 270 270 270 270 270 269 269 269 270 271 272 273 274 274 274 274 274 273 273 273 273 273 273 273 273 273 273 273 273 273 273 273 272 272 272 271 271 271 270 270 270 270 269 269 268 268 267 267 266 266 265 265 265 265 264 264 264
269 269 269 269 269 269 270 270 271 271 271 271 271 271 270 270 270 270 270 270 269 269 269 269 269 269 269 269 269 269 268 268 268 268 269 269 270 271 272 273 273 273 273 273 272 272 272 272 272 272 272 273 272 272 272 272 272 272 271 271 271 271 271 270 270 270 269 269 269 269 269 268 268 268 267 267 266 265 265 264 264 264 264 263 263
Wind_Speed
18 19 19 20 20 21 21 20 22 22 23 23 23 24 25 26 25 24 24 24 24 25 26 29 30 29 28 29 31 31 31 30 30 31 32 32 33 33 31 31 32 31 31 32 32 32 32 32 32 33 32 30 30 31 32 31 30 29 29 28 27 26 25 21 12 8 12 16 18 19 20 21 21 22 22 22 22 23 25 28 30 32 33 33 33
17 17 17 18 19 20 19 19 20 21 22 23 24 25 25 26 26 25 24 25 26 27 27 27 28 29 29 28 28 29 31 31 31 31 32 33 34 33 31 31 32 32 31 32 33 33 33 33 33 34 33 32 32 32 33 33 32 32 31 30 29 28 27 25 19 12 12 17 20 21 22 22 22 24 24 23 23 24 26 28 30 31 31 32 32
17 17 17 18 20 20 20 21 22 22 23 24 26 28 27 27 26 26 25 25 26 29 29 28 28 29 30 30 29 28 29 30 32 33 33 33 35 34 33 32 33 33 33 32 32 32 33 33 34 35 34 33 33 33 33 33 33 33 33 32 31 29 29 29 25 18 15 17 20 22 23 23 23 23 23 22 23 24 26 27 28 29 30 30 31
18 17 17 19 20 20 21 23 23 23 25 25 26 27 27 25 25 25 25 25 26 27 29 29 28 29 30 30 31 31 31 31 32 33 33 34 36 36 35 34 34 34 34 33 32 32 33 33 34 34 33 32 32 33 33 33 33 33 33 32 32 31 30 30 29 25 19 16 17 20 22 22 21 21 22 22 23 23 24 25 26 28 29 29 30
21 19 19 18 19 20 21 22 22 24 25 25 26 26 25 24 24 25 24 25 26 26 27 28 29 30 31 32 33 33 33 32 32 33 34 35 36 36 35 35 35 35 35 34 34 33 34 34 34 33 32 33 33 33 33 33 33 32 33 33 32 32 31 31 30 28 23 19 17 18 19 19 19 20 21 21 21 21 22 24 25 27 28 29 30
22 21 21 20 20 21 21 21 22 23 23 24 24 24 24 25 25 25 25 25 26 26 27 28 30 30 31 32 32 33 33 33 32 33 33 34 34 35 35 36 36 36 36 35 35 35 35 36 35 34 34 34 34 33 32 33 33 33 34 34 33 32 31 30 28 26 24 22 20 18 18 18 18 17 18 19 19 20 21 23 24 26 27 28 30
21 22 22 23 23 22 21 21 21 21 22 23 23 23 24 24 25 25 25 26 27 29 29 29 30 31 31 31 31 32 32 32 32 33 33 33 34 34 34 35 35 36 37 36 35 35 35 35 35 34 35 35 34 33 32 33 34 34 35 35 33 31 30 27 25 23 22 21 19 17 17 16 15 15 16 17 17 18 20 21 22 25 27 28 29
21 21 22 24 26 25 23 21 20 20 21 21 22 23 23 24 25 25 25 27 29 31 30 30 30 30 31 32 32 32 32 32 32 33 34 34 34 34 34 34 34 35 35 36 36 35 35 35 35 35 36 36 36 35 34 34 34 35 35 33 31 29 27 25 23 22 21 19 18 16 15 14 14 14 14 15 16 19 22 22 21 21 23 26 27
20 20 21 24 27 26 24 22 22 22 21 22 22 23 24 25 25 25 26 28 29 30 31 30 30 30 31 33 34 34 34 34 34 34 35 34 34 34 34 34 35 35 34 33 34 34 35 36 37 36 36 36 37 37 37 36 36 35 34 31 29 27 25 23 22 21 19 17 15 14 13 14 16 16 17 19 21 21 22 22 22 21 19 19 21
20 19 20 23 25 25 24 24 24 24 25 26 26 25 25 25 25 26 27 28 29 29 29 29 29 31 32 32 33 34 35 36 37 37 37 36 35 34 34 34 35 35 34 33 33 34 35 36 37 36 36 36 37 38 38 37 35 34 32 31 28 27 25 24 23 22 19 16 16 16 14 13 17 21 23 24 24 21 18 19 22 20 16 14 15
20 20 21 22 23 24 24 25 25 26 28 29 28 27 25 25 26 28 29 29 30 29 29 29 31 32 33 32 33 34 36 37 38 38 38 38 37 36 35 35 35 35 35 35 35 35 36 36 35 35 35 36 37 37 36 35 33 30 30 30 27 25 26 27 26 24 21 17 17 17 17 16 19 23 25 24 23 22 20 19 19 17 14 11 9
21 21 22 22 22 23 24 24 25 27 29 29 28 27 26 26 28 30 31 32 31 31 32 33 33 33 33 34 35 36 37 38 38 38 39 39 39 38 37 36 35 35 36 35 35 35 36 36 36 35 35 36 36 35 34 32 30 27 27 27 25 23 24 25 25 24 23 21 19 19 20 20 19 22 24 24 23 22 20 18 18 17 15 13 11
21 21 22 22 22 22 22 23 25 27 28 27 27 26 26 28 29 30 31 31 31 32 34 35 34 34 34 35 37 38 38 38 39 39 40 39 39 39 39 38 36 35 35 35 35 36 36 36 36 35 35 35 34 34 32 30 28 25 24 25 24 23 22 23 22 21 22 23 22 22 22 21 19 20 22 23 22 21 19 18 18 18 17 16 14
20 20 21 22 21 21 20 22 24 26 25 24 24 26 27 29 31 31 31 30 30 32 34 34 34 35 35 36 37 37 38 38 38 38 38 38 38 39 39 39 37 36 36 36 36 36 35 35 35 35 34 32 32 31 30 28 27 26 25 25 25 24 23 22 21 19 19 21 21 22 21 19 18 17 17 18 19 18 18 18 19 19 18 17 14
19 19 21 22 22 21 21 22 23 23 23 22 23 25 27 29 31 31 30 31 32 33 33 34 35 35 35 36 36 37 39 38 37 37 36 37 37 37 38 38 37 35 35 35 35 35 35 35 34 33 32 30 30 30 29 28 27 27 27 27 27 26 24 23 21 20 19 19 18 18 16 15 16 15 13 12 13 14 15 16 17 17 16 15 13
19 19 20 21 22 23 24 23 22 22 21 21 23 26 27 29 31 29 28 29 30 31 32 34 35 34 34 34 35 37 39 37 36 35 35 35 35 35 36 36 35 34 33 33 34 34 34 33 31 31 32 31 30 30 29 29 28 28 28 28 27 25 24 22 21 20 20 19 18 17 16 15 15 14 12 10 11 12 14 13 13 13 12 11 10
20 20 20 21 22 24 24 24 23 23 21 21 24 26 27 29 29 27 27 28 29 31 32 32 32 32 32 32 33 36 38 36 35 35 34 33 33 34 34 33 32 32 33 33 33 33 32 31 31 31 32 32 32 31 31 30 29 29 28 27 25 23 22 21 21 20 21 20 19 19 18 16 15 14 13 12 12 12 13 13 13 13 12 8 7
20 21 22 23 23 24 24 23 24 24 23 24 25 26 27 27 27 26 26 28 30 31 30 30 31 32 32 33 33 34 36 36 34 33 33 32 32 33 33 33 32 31 31 31 31 31 31 31 31 31 32 33 33 32 32 32 30 30 28 26 24 23 22 22 21 21 20 20 19 18 17 16 15 13 12 12 11 12 13 14 14 14 13 10 8
19 20 22 23 24 25 24 23 24 25 25 26 27 27 27 27 25 25 25 26 28 29 27 27 30 32 32 33 32 32 34 35 33 32 32 32 33 33 33 32 31 30 30 29 29 28 29 30 31 30 31 31 31 31 32 33 32 31 29 26 25 25 25 24 23 23 22 20 18 16 15 13 12 11 10 10 10 10 12 12 11 12 13 11 9
19 20 22 23 23 24 23 23 25 26 26 27 28 27 27 26 24 24 24 25 26 26 26 27 29 30 30 30 30 31 33 33 33 32 32 32 32 33 33 32 32 31 30 30 29 28 28 29 30 30 29 29 29 29 31 33 32 30 29 29 28 26 25 24 24 23 22 19 17 15 13 12 11 11 11 11 11 12 14 13 12 12 12 10 9
21 22 22 22 22 23 23 23 25 26 27 27 27 27 26 25 24 24 23 23 24 25 26 26 28 29 29 29 30 31 31 32 31 30 29 30 31 32 34 35 35 33 31 30 30 30 30 31 31 31 30 29 28 28 29 30 30 29 29 30 28 25 24 24 23 21 20 19 17 15 13 12 12 11 12 13 13 14 16 16 15 14 13 10 10
24 23 23 22 23 24 25 24 24 25 26 26 27 28 26 24 24 23 22 22 23 25 26 25 26 27 28 28 30 31 31 32 32 31 31 31 30 32 35 36 35 33 31 30 31 32 33 34 34 33 32 31 30 29 29 30 30 30 29 28 26 22 21 22 23 22 21 19 18 16 14 14 14 13 12 14 15 15 16 17 15 14 14 12 11
27 26 26 26 26 26 26 25 24 24 24 25 25 26 25 23 22 22 21 21 22 23 24 23 24 25 26 27 29 31 31 32 33 33 33 33 33 33 35 36 35 34 33 33 33 33 33 33 33 33 32 31 30 28 28 30 31 30 29 27 24 20 20 22 24 24 22 20 19 17 16 16 16 15 15 15 16 16 16 15 14 14 13 12 11
31 31 31 29 29 28 27 26 23 22 22 22 23 24 24 22 22 21 20 20 21 21 21 20 21 22 23 25 27 28 29 31 33 34 34 33 34 34 35 35 35 34 33 33 32 32 31 30 30 30 30 30 29 28 28 30 30 29 28 26 23 20 21 24 25 24 22 20 19 18 18 17 17 18 18 17 16 15 15 13 12 12 11 9 9
34 34 33 32 31 30 29 28 25 22 20 19 20 22 21 20 21 20 19 20 20 19 19 19 20 21 22 23 24 24 25 28 32 34 34 34 34 33 34 35 35 33 33 32 31 30 30 30 30 29 29 30 30 29 28 29 28 27 25 24 23 22 24 26 26 24 22 20 19 19 19 19 19 19 18 17 15 15 14 12 11 10 9 8 7
33 33 33 33 33 31 30 30 27 23 21 18 19 20 19 19 19 19 18 19 20 19 19 18 19 20 21 22 23 23 25 27 30 32 33 34 34 34 33 34 34 34 33 32 30 28 28 29 30 29 29 30 31 30 29 27 25 24 23 23 24 25 26 27 26 24 22 21 21 21 21 20 19 18 17 15 14 14 13 13 12 10 9 8 8
29 30 31 32 32 30 28 28 27 24 22 20 19 19 19 19 19 18 17 17 18 19 19 18 18 18 19 20 21 22 24 26 26 26 28 31 34 34 33 32 32 32 30 28 26 25 25 25 26 27 27 28 29 28 28 26 24 24 24 24 24 25 25 26 25 24 23 23 22 21 21 21 20 18 17 16 15 14 13 12 12 11 11 10 9
25 27 28 28 28 27 26 26 26 24 23 21 21 20 19 19 20 20 20 19 19 19 18 18 19 19 19 19 19 19 22 24 23 23 25 28 30 30 30 31 31 30 28 25 22 21 22 22 21 22 24 25 24 24 24 24 25 26 25 25 24 24 24 23 22 21 22 23 23 23 22 21 20 19 18 17 16 15 14 13 12 12 12 11 11
23 24 25 24 24 24 24 24 24 23 23 23 24 24 23 21 22 23 23 22 22 22 20 21 21 21 22 22 20 18 19 21 22 23 25 27 27 28 29 31 30 28 26 24 22 21 21 22 23 24 24 23 23 24 25 25 25 25 24 24 24 24 24 24 23 22 23 24 24 24 23 22 21 19 18 17 16 15 14 13 12 12 11 11 11
21 21 21 20 20 21 22 22 22 22 22 23 24 26 27 26 25 24 23 23 23 24 24 25 24 23 24 24 23 23 24 22 20 21 23 26 28 30 30 30 30 27 25 24 23 23 22 22 23 24 24 23 23 23 25 26 27 25 24 24 24 24 24 23 23 23 24 25 25 25 24 23 21 19 18 17 16 14 13 13 13 13 12 12 11
19 19 18 18 19 20 21 21 22 22 21 21 22 23 25 26 26 25 24 23 22 23 24 26 26 26 27 27 25 26 27 26 23 22 24 25 28 31 31 30 29 28 27 26 24 23 21 21 21 22 23 23 23 23 25 26 27 27 26 24 23 24 23 23 24 25 25 24 24 24 23 22 20 19 18 18 17 16 14 13 13 13 12 12 12
18 19 18 19 20 20 19 20 21 21 20 20 20 20 20 21 21 22 22 22 22 23 23 25 25 26 28 30 29 27 25 25 25 26 27 27 28 30 32 32 31 30 30 29 26 23 22 22 21 22 23 23 23 24 26 26 26 27 26 24 23 24 23 23 25 26 25 24 24 22 21 20 20 19 19 18 18 17 15 14 13 13 13 12 12
19 20 20 20 20 19 19 19 19 19 19 19 18 18 18 16 16 18 20 20 21 22 23 24 25 26 27 29 31 30 28 26 25 27 28 29 28 29 32 34 32 31 32 31 25 22 22 23 22 23 25 24 24 25 26 26 27 27 27 26 25 25 23 23 25 25 23 23 23 22 21 21 21 20 19 18 17 17 15 14 13 13 13 12 11
21 21 21 20 20 20 19 18 19 19 19 19 19 19 18 18 18 18 17 15 16 18 21 22 23 25 26 28 30 31 31 29 27 27 28 29 28 29 29 29 29 30 33 32 26 22 23 23 22 23 25 25 25 26 27 26 27 27 26 25 24 25 24 24 24 23 22 22 22 22 22 22 22 21 20 18 17 16 15 15 14 14 13 12 11
23 22 21 20 20 20 19 18 18 19 19 19 19 19 19 20 20 19 17 15 14 15 17 19 21 22 24 26 28 30 31 30 29 28 28 28 28 27 26 25 25 27 31 31 27 24 24 24 23 24 25 25 26 28 28 27 28 29 28 25 24 26 27 25 24 23 23 23 23 23 23 22 21 21 21 20 18 17 16 15 14 13 12 12 11
22 20 20 19 19 19 19 18 18 19 20 20 21 21 21 21 20 20 20 19 18 16 17 19 19 19 20 22 25 27 28 28 28 28 28 28 27 28 28 27 26 27 28 28 26 24 23 24 24 24 25 26 27 28 28 27 28 29 29 27 27 29 28 25 24 23 23 23 23 23 23 22 20 20 20 19 18 17 16 15 14 13 12 12 11
24 21 19 19 19 19 20 20 19 20 21 22 22 23 22 21 21 20 19 19 18 18 17 18 17 16 17 19 21 23 24 24 25 27 27 27 28 31 31 28 26 26 26 27 26 24 23 24 24 24 25 25 26 27 27 26 27 27 27 27 28 29 27 25 25 25 24 24 24 24 23 21 20 20 20 19 17 16 15 15 13 12 11 11 10
25 21 20 20 20 20 21 21 20 20 20 20 20 20 20 20 20 19 18 18 18 17 17 16 15 15 15 16 18 20 21 20 21 23 24 26 29 32 30 27 25 25 25 26 26 25 24 24 25 26 26 26 26 25 25 26 27 27 27 27 27 27 26 25 25 24 23 24 24 23 21 20 19 19 19 18 17 16 15 14 13 12 12 11 10
24 21 20 21 21 21 20 20 20 19 19 19 18 18 19 19 18 17 17 16 16 16 16 15 13 14 16 16 16 17 18 18 19 21 23 26 30 31 28 25 23 24 24 24 25 25 24 23 25 27 28 27 26 26 26 26 27 27 28 28 27 25 26 26 25 23 23 23 23 21 19 19 18 17 17 17 16 16 15 14 13 12 12 11 10
25 22 20 19 19 20 20 20 20 19 19 19 18 18 18 18 17 17 17 16 15 15 16 15 14 15 17 17 17 18 18 18 19 21 23 25 27 29 28 25 23 22 22 22 23 23 23 23 25 26 27 27 27 27 27 27 28 27 28 28 27 26 25 25 24 23 22 22 21 20 19 18 18 17 16 16 15 15 15 14 13 12 12 11 11
24 21 19 18 18 19 19 19 18 18 19 19 19 19 19 18 17 17 17 16 16 16 16 16 16 17 18 19 21 23 22 19 19 21 23 24 25 27 26 25 23 23 23 23 23 22 22 23 26 27 27 27 28 28 28 28 29 28 28 27 26 25 24 24 23 22 21 21 21 20 19 18 18 18 17 16 15 15 15 14 13 12 12 11 11
21 19 18 17 16 17 18 18 18 18 19 20 19 19 19 18 18 18 17 17 17 16 15 16 16 16 17 18 20 22 21 18 17 18 20 21 22 22 21 20 21 22 24 24 24 24 23 24 26 27 28 29 29 29 30 30 30 29 28 27 26 25 24 23 23 22 22 21 20 20 19 18 17 17 16 15 15 15 15 14 13 13 12 12 12
19 18 18 17 17 17 18 18 18 18 18 19 19 19 19 19 19 18 17 17 17 16 15 16 14 14 16 17 17 18 18 16 14 15 16 17 17 17 16 16 17 18 20 22 23 24 24 25 24 24 26 27 28 29 30 30 30 30 29 27 27 26 25 25 25 24 23 21 20 19 19 18 17 17 16 16 16 15 15 14 14 13 13 13 12
19 18 18 18 17 17 17 17 17 18 19 19 20 20 20 19 19 18 17 16 16 15 16 15 13 13 15 16 15 15 14 13 13 14 15 16 16 16 15 14 15 16 17 19 20 22 23 24 23 24 24 25 26 27 28 29 30 30 29 28 28 27 26 26 26 25 23 21 20 20 19 18 18 18 17 16 16 16 15 15 15 14 13 13 13
19 18 17 17 16 16 16 16 16 17 18 18 18 19 19 19 18 17 16 16 15 14 14 13 12 11 13 14 13 13 11 10 11 13 14 15 16 16 16 15 16 16 17 18 19 21 22 23 24 25 25 24 24 24 25 25 26 26 26 26 25 25 24 24 23 22 21 19 19 20 20 19 19 18 18 17 17 16 16 16 16 15 14 14 13
18 17 17 16 16 15 15 15 15 15 14 14 14 15 15 15 15 14 13 12 11 10 10 9 9 8 8 9 9 9 9 9 10 11 12 13 15 16 16 17 17 18 18 19 19 20 21 23 24 25 25 25 23 22 22 22 22 21 21 21 20 20 20 19 19 19 18 17 18 19 20 20 20 19 18 17 17 16 16 16 16 16 15 14 14
17 16 16 15 15 15 15 14 14 14 13 12 11 10 9 9 9 9 8 7 6 5 5 5 5 5 5 6 7 7 7 8 9 10 11 13 14 16 17 18 19 20 20 19 19 20 22 23 24 25 25 24 23 22 21 21 20 20 19 18 17 17 17 16 16 17 17 16 17 18 19 20 20 20 18 17 16 17 17 17 16 16 15 15 15
15 14 14 14 14 14 13 12 12 11 10 9 8 8 7 6 5 4 3 2 2 2 3 3 4 5 6 7 8 8 8 9 10 12 13 14 15 16 17 19 20 21 21 21 20 20 21 21 22 23 23 22 22 21 20 20 19 18 18 17 16 15 15 15 16 16 16 15 16 17 18 19 20 20 19 18 17 18 18 18 17 17 16 15 14
13 13 13 12 12 11 11 10 9 8 7 6 5 4 3 2 1 1 2 3 4 4 5 6 7 8 9 10 10 10 11 12 13 14 15 15 16 18 20 21 22 22 22 22 20 20 19 19 19 20 20 19 19 18 18 17 17 16 16 16 15 15 14 14 14 15 15 15 16 16 17 18 18 19 19 18 17 18 18 17 17 17 16 15 15
11 11 10 10 10 10 10 9 8 7 6 5 3 2 2 2 3 5 6 8 8 7 8 9 10 10 12 12 13 14 14 15 16 16 16 17 19 20 21 22 22 22 22 21 20 19 18 17 17 17 17 17 16 16 16 15 15 15 15 15 15 15 15 15 14 15 15 16 16 17 17 18 18 18 18 17 17 17 17 17 17 17 16 16 16
12 12 13 13 13 13 13 12 11 10 10 8 7 6 6 6 6 8 9 10 10 9 10 11 12 13 14 15 15 16 16 17 17 18 18 19 20 20 20 20 20 20 20 20 19 18 17 16 16 15 15 15 15 15 14 14 14 14 14 14 15 15 15 15 15 15 15 16 16 17 17 17 17 17 17 17 17 17 17 17 17 17 16 16 16
Wind_Direction
249 244 242 239 237 235 233 232 232 232 232 232 232 231 232 233 233 232 231 232 233 231 227 227 229 230 230 229 226 224 226 226 225 223 222 222 222 224 226 226 224 224 224 226 227 229 229 228 230 232 232 231 231 232 233 233 234 234 235 236 234 233 233 230 233 240 228 225 227 232 237 241 246 250 250 247 245 246 245 243 241 239 240 242 244
254 245 242 240 239 238 236 234 232 232 230 231 233 234 233 232 233 234 233 234 235 234 231 230 232 231 228 227 226 227 227 224 221 221 221 221 220 221 223 223 223 223 225 227 229 230 230 230 232 235 235 235 233 233 235 234 234 235 236 236 234 234 233 232 232 234 229 226 227 232 238 240 243 246 246 243 243 244 242 238 237 239 241 243 244
267 252 242 240 241 239 239 239 236 233 231 231 233 235 234 234 235 235 236 236 236 236 236 235 236 231 226 226 227 226 224 221 220 221 220 220 219 219 221 222 224 224 225 228 230 231 231 231 233 235 235 235 234 234 236 236 235 235 235 236 236 236 236 235 233 230 227 228 228 230 235 237 239 243 244 242 242 244 241 238 239 241 242 244 245
282 264 248 243 244 242 241 243 242 238 236 235 236 237 237 237 237 236 236 237 236 237 237 236 234 230 225 225 225 224 223 221 221 222 221 222 221 221 224 226 228 229 229 231 234 234 234 233 234 234 232 232 234 235 236 236 235 234 235 237 237 237 238 238 235 233 230 228 228 232 236 236 236 239 240 238 238 239 239 239 242 243 244 246 247
292 277 261 253 251 248 246 246 245 242 241 240 241 240 239 238 237 237 237 237 237 238 237 234 231 228 226 225 224 224 225 224 224 224 224 224 224 225 228 231 232 233 233 234 235 236 235 235 235 234 232 233 234 234 234 233 233 234 236 237 238 238 239 239 236 234 231 229 229 231 232 230 230 234 235 234 234 235 236 238 241 244 246 248 248
299 286 274 264 259 255 251 248 246 245 245 245 245 243 241 239 238 237 236 235 235 236 236 233 230 229 228 228 228 228 229 228 228 228 227 227 229 231 234 235 235 235 235 235 236 236 236 235 235 234 233 233 233 233 233 233 233 234 236 237 238 238 237 235 233 231 229 230 230 226 225 225 226 228 230 230 230 232 233 237 242 244 246 248 248
302 293 283 272 266 261 255 252 250 249 248 248 248 247 244 241 240 238 237 237 235 235 235 235 234 234 233 232 233 233 234 233 233 233 232 233 235 236 236 235 234 234 235 236 237 237 237 236 236 236 235 235 236 235 235 235 236 236 237 237 237 235 232 230 229 228 226 226 225 223 222 222 221 225 230 229 228 232 233 235 241 244 244 247 248
304 300 291 280 272 266 261 257 255 254 252 251 250 248 246 244 242 240 238 238 238 236 236 238 238 238 237 236 237 237 236 236 235 236 236 237 237 237 236 234 234 234 235 236 236 236 238 239 239 238 237 238 239 240 239 239 239 238 239 238 235 232 229 225 224 223 221 219 219 217 213 210 211 216 221 216 215 226 232 230 235 242 245 249 250
302 303 297 290 284 276 270 265 261 258 255 253 251 249 248 248 246 243 240 239 240 239 238 239 238 238 238 238 237 237 237 237 237 237 237 236 236 235 235 234 234 235 235 235 235 236 238 240 240 240 240 241 244 245 244 244 243 241 240 237 232 228 225 221 219 216 213 212 211 205 199 202 205 204 205 208 212 225 232 228 230 239 245 251 257
299 301 299 299 295 286 280 275 269 265 261 258 256 254 251 248 245 243 241 240 240 240 239 238 237 238 239 239 238 236 236 237 238 238 238 237 235 235 234 234 234 234 235 236 237 238 240 239 239 240 243 246 247 247 246 245 245 246 245 240 233 226 220 216 214 212 207 204 202 196 192 201 209 209 213 220 222 225 225 223 227 235 239 247 260
298 297 298 300 298 291 286 282 276 272 268 265 262 259 256 250 246 245 245 244 243 242 241 240 239 239 239 239 238 237 236 237 237 238 238 237 236 235 234 234 234 234 235 235 236 239 241 241 241 243 245 246 247 246 244 243 244 245 245 242 238 232 224 216 211 208 205 202 202 200 200 210 217 217 220 224 224 223 221 222 225 226 227 233 248
295 294 295 297 295 292 289 285 280 276 273 268 264 262 261 259 255 251 250 250 249 247 245 243 241 240 239 238 238 238 238 238 237 238 238 238 237 236 235 234 234 233 234 235 237 239 241 243 244 245 246 246 246 244 242 240 240 241 240 238 236 233 229 225 218 213 210 207 204 205 210 217 220 220 220 220 220 221 220 221 225 225 223 227 233
293 292 293 293 292 292 290 286 282 279 276 272 267 263 261 262 260 257 255 254 253 252 250 247 244 242 240 240 240 239 239 239 238 238 238 238 238 237 236 235 234 234 236 237 239 239 239 241 243 244 245 245 242 240 238 236 234 232 231 231 231 229 229 229 228 227 223 217 212 213 218 221 220 224 227 223 217 214 212 216 225 226 225 229 234
292 291 292 292 291 290 289 286 283 282 280 276 270 265 263 262 261 258 256 253 251 251 251 250 247 245 243 243 243 243 243 241 240 239 238 238 238 238 237 236 235 236 237 237 238 239 239 240 241 242 242 241 238 236 234 232 228 223 220 221 223 224 223 223 224 226 226 223 220 222 225 224 223 229 235 228 219 218 219 224 228 228 227 230 235
291 289 288 289 288 286 285 284 283 283 281 278 274 270 268 267 264 260 255 251 249 249 249 248 247 246 245 245 246 247 247 245 244 242 241 240 240 239 239 238 238 238 238 238 240 241 242 241 240 239 239 238 238 236 232 229 224 218 216 216 217 218 218 220 222 222 222 222 223 223 222 222 223 227 230 226 226 231 236 238 237 233 229 230 237
289 285 283 285 287 286 284 282 282 282 280 277 275 273 272 271 269 266 260 255 253 250 248 247 247 246 245 245 246 248 250 249 247 245 244 243 241 241 241 239 238 240 241 242 243 242 242 240 239 239 238 237 238 236 231 226 220 215 213 212 213 214 215 217 220 221 221 220 218 217 214 213 216 222 226 228 231 234 234 233 231 224 218 223 235
291 291 288 288 291 291 288 285 284 283 279 274 273 275 275 273 271 268 263 259 257 253 250 249 248 247 246 244 244 247 250 250 249 248 247 245 243 242 241 241 240 241 242 242 241 239 239 239 240 239 237 235 235 231 225 220 217 213 209 206 206 209 212 214 216 216 218 219 216 215 215 216 219 225 233 237 237 233 224 216 214 209 201 205 222
298 299 298 297 297 297 295 289 284 283 279 275 274 276 276 274 271 268 263 260 258 256 254 252 250 248 245 243 243 246 249 250 249 247 246 244 242 242 242 242 241 240 238 238 237 236 236 237 236 236 235 233 231 227 221 216 213 209 205 202 202 205 210 211 211 211 213 215 215 215 217 222 226 230 233 232 229 225 216 212 213 205 195 199 214
308 306 304 304 303 301 299 293 286 283 280 278 278 278 277 275 272 267 263 260 259 259 258 255 253 251 248 245 244 244 247 249 248 246 244 241 239 239 238 235 233 232 231 231 231 232 233 232 230 229 231 230 228 225 219 213 210 208 207 204 202 207 212 211 209 209 208 207 209 211 213 217 220 219 216 211 206 203 203 207 209 202 198 203 210
312 310 308 307 305 302 300 297 291 285 281 281 281 280 279 277 274 268 264 260 259 258 257 255 255 255 253 249 246 244 246 249 248 247 246 241 236 233 231 227 225 226 227 226 226 226 226 226 224 223 224 224 224 223 217 212 210 210 210 208 208 212 214 211 208 207 204 200 199 200 200 200 203 203 199 194 191 191 194 198 198 196 198 200 201
315 312 310 307 304 302 300 298 294 289 285 283 282 280 278 275 272 269 265 261 258 255 254 253 254 255 255 252 249 247 246 248 248 246 243 239 235 231 227 225 225 224 223 222 222 222 222 222 219 218 218 218 218 219 216 213 214 215 214 214 216 217 213 207 202 199 194 189 184 183 184 185 188 192 193 192 194 195 198 200 200 198 198 195 191
319 316 311 307 303 301 298 297 295 291 288 284 280 278 276 273 270 267 264 261 258 255 253 251 251 254 255 252 250 248 247 246 245 244 241 238 236 233 229 228 227 224 221 220 220 221 222 222 218 216 216 215 214 215 215 214 214 214 214 214 213 212 207 200 193 185 181 177 173 171 173 175 175 178 183 189 193 197 201 204 204 205 205 204 200
321 317 312 308 304 303 301 299 296 292 288 284 280 277 274 271 267 264 260 258 257 256 255 252 251 253 254 252 250 249 247 245 244 243 240 237 236 234 231 229 228 226 223 222 221 220 219 218 217 216 215 214 213 212 213 212 210 209 209 207 204 200 195 189 182 177 174 171 167 165 167 170 171 172 177 185 189 193 198 201 202 206 209 210 212
322 318 315 312 309 307 306 302 297 292 288 284 278 274 272 269 265 260 255 252 252 255 255 251 250 252 254 254 252 250 248 247 246 244 242 238 236 234 230 227 227 227 225 224 223 221 219 218 218 217 216 216 214 212 211 209 207 204 202 199 194 188 183 180 177 174 170 166 164 163 165 170 172 173 177 183 186 187 191 193 196 201 204 204 207
321 319 318 316 314 312 310 305 299 291 286 279 272 269 268 266 262 257 250 246 245 251 255 251 247 249 253 255 256 254 252 251 249 247 244 240 238 236 232 228 227 226 225 225 224 224 225 225 225 223 220 216 210 205 203 202 200 199 196 191 186 182 180 178 175 172 167 164 165 164 164 169 173 174 177 180 180 180 182 181 180 182 184 182 181
320 319 318 317 316 315 312 308 303 295 286 274 265 263 261 258 257 254 250 245 241 243 249 250 249 250 251 253 256 256 254 252 249 247 245 241 238 237 235 231 228 227 228 228 229 229 229 226 223 220 215 208 201 197 195 194 194 193 190 185 183 182 181 179 175 171 167 166 165 164 164 169 171 171 171 169 167 168 170 166 161 158 160 159 152
319 318 318 317 316 316 313 309 305 299 289 276 263 258 253 249 248 246 243 243 242 242 243 244 246 250 253 256 256 255 253 251 249 246 243 241 240 237 234 230 228 227 226 226 225 223 220 217 215 210 203 196 193 193 190 186 185 184 181 181 181 180 180 179 176 172 168 165 163 162 164 167 165 160 158 157 155 156 157 156 151 148 147 145 141
317 316 317 316 314 314 312 309 305 300 292 282 270 260 251 243 241 241 240 239 241 243 243 243 244 245 250 256 258 256 252 249 246 244 243 242 240 238 233 228 224 221 218 215 212 209 207 204 198 191 185 180 178 177 175 175 177 176 174 175 176 176 176 175 172 169 166 164 161 159 159 158 155 152 152 154 153 151 151 150 149 151 151 147 143
315 314 315 315 313 313 312 310 306 301 295 289 282 274 265 255 246 245 246 244 243 243 244 246 248 248 249 250 250 251 253 251 247 245 244 242 240 237 232 227 222 217 212 208 200 192 188 182 176 174 174 172 170 167 167 168 171 171 170 171 172 172 171 170 167 166 166 164 160 157 154 152 150 151 151 150 150 152 153 153 153 154 152 148 146
314 313 313 312 312 313 313 311 307 303 298 293 289 286 281 273 262 254 250 248 247 246 245 247 250 252 252 251 248 248 252 255 254 249 244 242 241 238 233 227 221 214 207 201 193 184 176 173 174 176 177 175 172 170 168 168 168 168 168 170 171 169 168 168 167 165 164 163 160 157 155 153 153 153 152 148 147 150 153 154 155 154 151 149 149
309 310 310 308 307 309 309 307 306 304 300 295 292 291 290 287 278 267 258 252 250 249 248 250 252 251 252 254 254 253 254 254 252 250 248 247 243 238 233 227 220 213 205 197 191 186 180 179 182 184 184 182 180 176 174 172 171 169 167 168 170 169 168 169 168 164 160 160 159 158 158 157 156 155 154 150 147 147 149 151 153 154 153 154 154
302 303 304 304 304 304 302 301 302 302 299 297 294 290 290 291 289 282 271 260 254 251 250 251 252 251 250 251 252 255 256 252 248 247 248 249 246 240 234 227 221 216 209 201 196 193 190 189 190 189 188 188 186 182 177 174 173 171 168 167 170 171 170 169 168 164 161 160 161 160 160 159 157 154 153 151 148 148 150 154 155 154 155 156 154
298 298 301 301 301 300 298 298 298 298 296 296 294 290 286 286 288 291 287 275 264 257 251 249 250 251 250 248 248 250 253 252 249 248 248 249 247 240 231 224 218 212 205 200 199 199 196 196 195 191 190 191 188 184 180 176 173 172 171 170 171 171 170 168 167 165 164 164 163 160 158 157 154 151 151 151 151 151 153 155 157 156 156 156 154
299 296 296 296 294 293 291 290 291 292 291 291 290 287 284 281 282 286 288 282 272 263 256 251 248 247 248 248 247 248 249 249 249 250 249 249 246 237 225 217 213 208 202 199 201 200 197 198 198 194 193 193 188 183 181 178 174 173 172 170 168 167 166 165 165 165 164 163 162 159 156 156 154 152 151 151 151 152 154 157 158 158 158 157 156
303 298 296 293 289 287 286 284 285 285 286 286 286 284 284 283 282 280 277 276 275 272 266 260 251 245 245 247 247 247 247 246 247 247 247 247 241 227 211 201 198 199 200 203 205 203 199 198 197 195 194 193 189 184 181 178 176 175 172 168 165 164 164 163 163 163 163 161 159 157 156 155 155 154 152 151 152 153 156 158 160 161 160 157 156
303 298 297 294 288 286 285 284 283 282 282 283 283 283 282 281 280 278 275 273 273 273 274 270 259 248 244 243 243 244 245 244 243 242 243 242 232 213 199 194 193 195 199 204 206 205 202 199 197 195 194 192 190 186 182 179 178 177 174 170 166 164 163 164 163 161 159 157 155 154 153 152 153 154 153 152 153 156 158 159 160 161 161 158 157
304 296 293 292 290 287 285 283 282 282 281 280 279 279 278 276 275 274 273 272 270 271 273 272 264 253 245 239 234 235 238 240 239 237 238 236 223 208 202 202 200 199 202 204 203 202 200 197 195 194 193 190 188 186 182 178 175 174 172 169 165 162 162 163 162 158 155 153 151 151 151 150 152 156 155 153 153 155 157 158 157 157 159 159 157
305 295 289 289 290 288 286 284 282 282 281 279 276 275 274 273 273 271 268 268 268 268 269 268 262 256 255 248 235 227 227 229 229 229 227 220 211 206 207 210 207 204 205 204 201 200 198 195 191 189 188 186 186 183 179 173 170 168 165 161 158 158 159 160 158 155 153 151 150 150 150 151 154 157 157 155 154 155 157 158 157 156 158 159 160
301 293 290 291 289 286 285 285 285 283 282 279 277 274 272 271 270 268 267 266 264 263 265 265 260 257 260 256 239 222 213 209 209 211 209 205 203 204 208 211 211 210 208 204 201 200 197 192 187 185 183 183 183 181 175 170 166 163 159 154 152 154 157 157 155 154 152 151 151 151 152 153 155 158 157 155 155 155 157 160 162 162 161 162 164
298 293 292 292 288 285 284 283 282 282 281 278 277 275 272 269 267 265 264 263 263 263 263 261 258 259 259 252 239 224 212 205 204 204 202 201 202 203 205 209 209 208 205 202 200 199 196 188 183 180 179 179 178 175 172 167 162 159 156 154 153 155 157 157 156 155 153 152 153 153 153 153 154 155 155 155 156 159 161 163 165 165 163 161 160
294 289 288 288 287 286 285 281 279 279 278 276 276 275 273 271 268 265 264 262 263 264 261 258 260 263 259 250 241 232 225 218 212 206 203 202 202 202 204 207 205 201 199 197 195 194 191 183 178 175 173 173 172 169 166 164 161 157 155 155 155 155 157 159 159 157 154 153 153 152 152 154 155 154 154 155 158 162 163 163 163 163 163 161 158
289 282 284 285 284 283 281 280 281 282 279 276 273 271 271 271 269 266 264 262 262 262 261 260 260 258 252 247 241 235 232 229 222 210 204 202 201 200 201 202 199 197 195 193 190 189 185 179 174 171 170 169 169 167 165 164 161 158 157 157 157 157 158 160 161 159 155 153 153 153 154 155 157 156 156 159 161 162 161 162 162 160 161 162 161
284 280 281 281 278 276 276 277 280 281 279 277 275 273 272 272 270 268 265 264 262 260 258 256 253 248 245 242 236 230 230 229 218 204 196 191 189 189 189 189 188 188 188 188 187 185 180 173 168 167 167 168 168 168 167 166 163 160 159 160 161 161 161 161 162 162 160 156 155 156 157 157 157 157 157 159 162 161 159 160 160 159 160 161 162
285 283 281 278 276 274 273 275 276 278 279 280 279 278 277 274 271 267 265 263 260 256 253 250 245 239 238 235 229 225 225 219 204 193 187 180 176 173 172 172 172 174 176 177 177 177 173 168 163 162 162 163 166 168 170 168 166 165 166 166 165 164 164 165 166 168 169 166 162 161 161 161 160 159 159 161 162 161 160 161 160 159 160 162 163
287 284 281 279 278 276 275 276 276 278 280 281 279 278 276 274 270 267 265 262 258 253 248 242 234 229 230 228 223 219 215 206 195 188 181 174 168 163 160 160 162 164 165 164 165 167 166 164 161 160 158 158 161 164 165 164 163 165 166 166 165 165 166 168 170 173 176 175 171 168 168 167 165 163 162 164 165 165 164 164 163 162 161 164 167
284 281 280 279 279 277 278 278 278 278 278 277 275 276 276 273 271 269 267 264 257 248 241 234 224 219 221 219 213 206 200 191 181 175 170 166 161 156 154 154 155 156 157 157 157 159 160 160 159 157 155 154 154 156 156 155 156 158 160 163 164 165 167 170 172 175 178 180 178 176 174 172 170 167 166 166 166 165 164 164 165 164 163 165 167
283 280 279 280 281 281 281 281 279 277 274 271 270 274 275 273 271 271 269 265 256 240 230 219 206 197 193 188 182 177 171 166 160 155 153 152 149 147 149 150 150 150 151 151 153 154 155 154 154 152 150 150 152 153 154 154 155 157 159 163 166 167 167 170 173 177 180 182 181 179 178 176 173 171 169 166 165 164 163 163 165 165 164 164 166
289 288 288 288 287 286 286 285 281 278 275 271 269 271 272 270 270 268 260 250 226 203 185 159 148 151 151 148 148 148 146 145 144 141 142 143 143 143 145 145 145 145 145 144 145 147 147 147 148 148 148 150 153 155 155 156 157 160 162 164 166 168 170 173 176 177 179 180 180 180 180 178 175 174 171 169 168 168 167 166 165 165 164 163 165
302 303 302 301 300 298 299 299 295 290 286 281 276 278 278 267 227 131 125 118 115 122 129 127 126 130 130 128 129 132 134 136 135 134 135 136 137 138 139 138 137 137 136 136 137 139 141 143 145 147 149 151 153 154 155 157 160 162 164 165 166 168 171 174 176 176 177 177 178 178 178 177 176 176 174 173 173 172 169 166 165 165 164 164 165
328 327 327 328 328 325 323 321 319 321 325 327 330 356 32 63 84 95 104 107 106 107 114 119 120 121 120 120 122 124 126 128 129 129 129 129 131 132 132 132 131 132 133 134 136 139 142 144 145 147 148 150 152 154 157 160 162 164 165 165 166 168 170 171 172 174 175 177 177 177 177 177 177 176 175 174 174 172 168 165 165 165 165 165 166
13 12 11 9 5 2 359 356 353 354 359 6 14 26 34 44 61 78 91 97 99 102 108 112 115 117 117 118 119 120 121 122 123 124 125 127 128 129 130 131 132 134 136 138 140 143 145 146 147 149 151 153 155 157 159 160 162 164 165 166 167 169 169 169 170 172 174 176 177 177 178 179 178 177 176 175 175 173 170 168 168 167 166 168 169